Location: Nebula Knoll Observatory
(43.6666°N, 71.0000°W)
Time: 12:28:14
(UTC-04:00)

Daily predictions for brighter satellites

Satellite Brightness Start Highest point End
(mag) Time Altitude Azimuth Time Altitude Azimuth Time Altitude Azimuth
NOAA 12 4.3 19:18:04 10° SSE 19:23:24 85° WSW 19:28:44 10° NNW
Cosmos 405 2.9 19:30:33 10° S 19:34:03 74° E 19:37:35 10° NNE
FREGAT/IRIS 2.9 19:32:13 10° S 19:35:16 74° WSW 19:38:21 10° NNW
CZ-2D R/B 4.0 19:34:23 10° SE 19:37:50 32° ENE 19:41:20 10° N
Helios 1B rocket 3.8 19:36:07 10° NE 19:39:04 19° E 19:41:59 10° SE
Helios 1A 4.0 19:38:31 10° SE 19:41:59 26° ENE 19:45:30 10° N
Cosmos 1437 Rocket 2.7 19:42:30 10° S 19:46:28 71° E 19:50:32 10° NNE
SJ-6B 3.2 19:43:24 10° S 19:47:06 62° WSW 19:50:49 10° NNW
Lacrosse 4 Rocket 1.2 19:45:45 10° SSW 19:49:47 82° ESE 19:53:52 10° NNE
Resurs 1-3 3.6 19:48:26 10° SSE 19:52:45 60° ENE 19:57:05 10° N
In-Cosmos 22 4.3 19:51:56 10° N 19:57:08 50° ENE 20:02:15 10° SSE
USA 215 3.8 19:51:55 10° ENE 19:57:53 37° SE 20:03:48 10° SSW
Cosmos 1844 Rocket 2.9 19:53:52 10° SSW 19:59:32 78° WNW 20:05:12 10° NNE
Spot 2 Rocket 3.5 19:54:57 10° SSE 20:00:02 80° ENE 20:05:10 10° NNW
Cosmos 2150 Rocket 4.0 19:56:49 10° SSW 20:01:58 90° WNW 20:07:09 10° NNE
Cosmos 1758 4.1 20:03:34 10° SSE 20:07:03 30° E 20:10:34 10° NNE
Cosmos 1833 Rocket 3.7 20:03:14 10° N 20:08:03 28° NE 20:10:56 19° E
Cosmos 2278 Rocket 2.3 20:03:14 10° S 20:08:43 55° ESE 20:14:16 10° NNE
Cosmos 1378 4.1 20:08:48 10° NNW 20:12:28 51° W 20:16:07 10° S
Cosmos 1934 Rocket 3.9 20:06:31 10° S 20:12:40 89° E 20:18:47 10° N
SAR-Lupe-4 3.5 20:10:59 12° SSE 20:14:11 61° ENE 20:17:43 10° N
Cosmos 1898 Rocket 4.3 20:09:53 10° SW 20:15:06 55° WNW 20:20:18 10° NNE
Cosmos 1939 Rocket 3.8 20:13:32 23° ESE 20:15:08 30° ENE 20:18:47 10° N
Cosmos 990 Rocket 4.0 20:10:51 10° SSW 20:16:06 89° WNW 20:21:24 10° NNE
Tiangong 1 1.7 20:13:33 10° W 20:16:21 41° SSW 20:17:22 29° SSE
Cosmos 1953 2.8 20:13:38 10° SSE 20:17:23 37° E 20:21:09 10° NNE
Okean 3 Rocket 3.5 20:13:04 10° N 20:17:27 65° E 20:21:49 10° SSE
Envisat 3.4 20:14:18 16° SE 20:17:58 44° ENE 20:22:46 10° N
Cosmos 2297 4.3 20:16:08 10° SSE 20:21:06 32° ESE 20:26:06 10° NE
Meteor 1-24 Rocket 4.1 20:16:35 10° NNW 20:21:59 65° W 20:27:33 10° S
H-2A R/B 3.7 20:19:01 10° S 20:22:47 50° W 20:26:38 10° NNW
Cosmos 1125 Rocket 3.9 20:18:53 10° SSE 20:23:37 37° ESE 20:28:22 10° NE
USA 186 0.8 20:24:57 56° S 20:25:20 81° WSW 20:27:36 10° NNW
Abrixas 2.8 20:23:37 10° WNW 20:26:25 49° NNE 20:26:54 42° NE
Cosmos 1048 Rocket 4.4 20:21:52 10° N 20:26:45 41° ENE 20:28:51 28° ESE
Geosat 4.1 20:26:18 10° NNE 20:31:21 82° WNW 20:36:22 10° SSW
USA 267 4.1 20:27:21 19° E 20:31:33 39° NNE 20:37:32 10° NW
SAR-Lupe-1 4.0 20:31:15 20° SSE 20:33:36 87° W 20:37:13 10° NNW
Cosmos 2082 Rocket 2.5 20:31:55 10° NNW 20:37:29 50° ENE 20:39:45 32° ESE
ALOS 4.4 20:33:53 10° SSW 20:37:51 27° W 20:41:51 10° NW
Lacrosse 5 rocket 2.8 20:35:27 10° NNW 20:38:35 22° NNE 20:39:27 20° NE
GP-B 3.0 20:37:25 20° SSE 20:40:27 67° E 20:44:52 10° N
Resurs 01 Rocket 3.2 20:37:18 10° SSW 20:41:20 35° W 20:45:25 10° NNW
Meteor 1-4 Rocket 2.3 20:40:40 39° S 20:41:48 69° E 20:45:17 10° NNE
CZ-4B DEB 2.6 20:41:47 60° S 20:42:18 86° W 20:45:25 10° NNW
CZ-3B DEB 2.8 20:31:41 10° WSW 20:42:18 73° NW 20:46:35 13° NE
Cosmos 1818 3.5 20:37:37 10° NNW 20:43:05 70° NE 20:45:20 36° SE
RESURS DK-1 3.4 20:39:12 10° NW 20:43:09 44° WSW 20:46:08 16° S
Cosmos 1544 3.1 20:39:56 10° S 20:43:34 80° W 20:47:15 10° N
ERS-1 Rocket 3.4 20:43:32 37° ESE 20:44:43 43° ENE 20:49:29 10° N
SL-27 R/B 4.3 20:44:11 10° NW 20:47:22 30° WSW 20:50:29 10° SSW
BREEZE-M DEB (TANK) 3.7 20:45:37 10° SSW 20:49:12 43° SE 21:00:20 10° ENE
Cosmos 2100 Rocket 4.1 20:44:06 13° SSE 20:49:34 53° E 20:55:43 10° NNE
Meteor 1-29 2.9 20:46:40 10° N 20:50:09 82° WNW 20:52:31 19° SSW
Cosmos 1605 Rocket 4.3 20:44:14 10° SSW 20:50:25 69° W 20:56:47 10° N
Timation 1 Rocket 4.2 20:44:54 10° SSW 20:50:50 68° ESE 20:56:50 10° NNE
Cosmos 1271 Rocket 4.4 20:53:13 23° NE 20:53:13 23° NE 20:54:59 10° NNE
COSMOS 2487 3.0 20:47:46 10° N 20:50:47 46° NE 20:50:47 46° NE
Lacrosse 5 1.9 20:49:02 10° SW 20:54:07 80° NW 20:58:10 16° NE
Cosmos 1766 Rocket 3.5 20:52:15 10° N 20:56:46 81° E 20:57:56 49° SSE
Cosmos 1076 Rocket 3.6 20:53:37 10° NNW 20:57:52 70° W 20:59:48 31° S
Cosmos 1269 Rocket 3.9 20:53:05 10° NNW 20:58:24 79° ENE 21:00:06 44° SSE
SPOT 5 3.9 20:58:37 33° ENE 20:58:39 33° ENE 21:03:25 10° N
Cosmos 2098 Rocket 4.4 20:54:37 10° S 21:01:40 84° W 21:09:22 10° N
Meteor 1-21 Rocket 4.3 20:56:02 10° NNW 21:01:51 80° W 21:05:51 21° S
ARGOS 3.9 21:06:43 34° ENE 21:06:43 34° ENE 21:11:15 10° N
Cosmos 1802 Rocket 4.0 21:05:09 42° SE 21:06:54 56° E 21:12:55 10° NNE
MetOp-A 4.3 21:11:56 52° ENE 21:12:07 52° ENE 21:17:18 10° N
Helios 1B rocket 3.9 21:10:40 10° N 21:14:31 38° WNW 21:18:20 10° SW
Cosmos 2344 4.3 21:07:09 10° WSW 21:14:43 57° NW 21:23:34 10° NE
Cosmos 2061 Rocket 3.9 21:11:25 29° S 21:14:49 71° E 21:21:14 10° NNE
Timation 2 Rocket 3.8 21:11:53 10° NNW 21:18:18 84° ENE 21:19:44 56° SE
Cosmos 1674 3.3 21:15:03 10° NNW 21:18:33 55° W 21:18:33 55° W
Cosmos 1867 3.4 21:13:31 10° SSW 21:18:56 75° ESE 21:24:24 10° NE
Cosmos-2242 3.1 21:22:00 70° NW 21:22:00 70° NW 21:25:58 10° N
Cosmos 1340 Rocket 3.6 21:24:10 10° NNW 21:27:12 48° NNW 21:27:12 48° NNW
Cosmos 1743 Rocket 4.1 21:24:20 10° N 21:27:44 53° N 21:27:44 53° N
H-2A R/B 4.4 21:33:18 13° NNE 21:33:18 13° NNE 21:33:55 10° NNE
Terra 4.0 21:34:10 15° NNE 21:34:10 15° NNE 21:35:23 10° NNE
Cosmos 1470 4.1 21:33:42 38° NNW 21:33:42 38° NNW 21:36:22 10° N
Cosmos 372 Rocket 4.1 21:30:22 10° SSW 21:35:27 69° WNW 21:40:37 10° NNE
USA 215 3.4 21:34:39 10° NE 21:41:10 70° NW 21:47:38 10° WSW
H-2A R/B 3.2 21:45:55 35° NNE 21:45:55 35° NNE 21:49:24 10° N
Cosmos 1459 Rocket 4.4 21:45:22 19° SSW 21:49:54 59° W 21:56:02 10° N
NOAA 11 4.3 21:51:35 74° NW 21:51:35 74° NW 21:56:42 10° NNW
Cosmos 2173 Rocket 4.4 21:48:08 23° SSW 21:51:58 58° WNW 21:58:08 10° N
Cosmos 1833 Rocket 3.3 21:46:49 10° NW 21:52:13 48° WSW 21:52:40 47° WSW
Cosmos 2278 Rocket 4.3 21:48:27 10° WSW 21:53:09 26° NW 21:57:52 10° N
CZ-3 Stage 3 4.0 21:34:52 10° W 21:53:40 34° SSW 21:54:42 33° SSW
USA 267 3.2 22:14:41 78° WNW 22:14:41 78° WNW 22:20:46 10° NW
Lacrosse 5 rocket 4.1 22:14:21 10° NW 22:15:09 15° NW 22:15:09 15° NW
Cosmos 2082 Rocket 3.9 22:16:39 10° NW 22:21:13 25° WSW 22:21:38 25° WSW
Lacrosse 5 3.9 22:33:35 10° WNW 22:37:28 25° NNW 22:37:28 25° NNW
CZ-3B DEB 4.3 22:51:04 10° WNW 22:54:17 18° NW 22:54:17 18° NW
